User: anonymous   Login
Location: Unspecified
(0.0000°N, 0.0000°E)
Time: 20:20:41
(UTC+00:00)
Language:

ATS 5 - Orbit

View from above orbital plane
View from above orbital plane
View from above satellite
View from above satellite

Ground track
Ground track

The orbit data is extracted from the following two-line orbital elements,

1  4068U 69069A   18264.88160786 -.00000307 +00000-0 +00000-0 0  9994
2  4068 006.9287 299.3694 0006178 312.5916 218.3369 00.99497013018219
Epoch (UTC): 21 September 2018 21:09:30
Eccentricity: 0.0006178
inclination: 6.9287°
perigee height: 35978 km
apogee height: 36031 km
right ascension of ascending node: 299.3694°
argument of perigee: 312.5916°
revolutions per day: 0.99497013
mean anomaly at epoch: 218.3369°
orbit number at epoch: 1821

The dashed part of the orbit path shows where the satellite is in the earth's shadow,  

DLR